period_start,C,m1,H,J0,J1,J2,J3,J4,J5,JA,JB,JC,JD,JJ,JK,JN,#
2013-09-07 00:00:37,0.01,1.12,0.00,23.21,28.05,30.44,5.90,29.88,996.12,2046.99,3021.05,3023.06,3267.00,349.59,316.83,29.02,0000 0000 0000 0000 000000
2013-09-07 00:01:38,0.00,1.12,0.00,23.19,28.05,30.48,5.91,29.71,996.13,2046.99,3021.07,3023.04,3267.00,349.90,317.19,29.03,0000 0000 0000 0000 000000
2013-09-07 00:02:38,0.00,1.12,0.00,23.20,28.05,30.45,5.88,29.79,996.12,2046.99,3021.05,3023.02,3267.00,349.61,317.00,29.03,0000 0000 0000 0000 000000
2013-09-07 00:03:38,0.01,1.12,0.00,23.16,28.05,30.49,5.73,29.79,996.11,2046.99,3021.03,3023.01,3267.00,349.11,316.68,29.04,0000 0000 0000 0000 000000
2013-09-07 00:04:38,0.00,1.12,0.00,23.15,28.05,30.48,5.91,29.83,996.11,2046.99,3021.01,3023.01,3267.00,349.84,317.12,29.05,0000 0000 0000 0000 000000
2013-09-07 00:05:39,0.00,1.12,0.00,23.17,28.05,30.48,5.99,29.79,996.11,2046.99,3021.01,3023.01,3267.00,350.56,317.76,29.05,0000 0000 0000 0000 000000
2013-09-07 00:06:39,0.00,1.12,0.00,23.19,28.05,30.44,5.85,29.71,996.11,2046.99,3021.01,3023.02,3267.00,349.99,317.22,29.06,0000 0000 0000 0000 000000
2013-09-07 00:07:39,0.00,1.12,0.00,23.19,28.05,30.43,5.84,29.88,996.11,2046.99,3021.01,3023.00,3267.00,349.83,317.07,29.06,0000 0000 0000 0000 000000
2013-09-07 00:08:40,0.00,1.12,0.00,23.18,28.05,30.44,5.68,29.71,996.11,2046.99,3021.02,3023.01,3267.00,349.61,316.88,29.07,0000 0000 0000 0000 000000
2013-09-07 00:09:40,0.00,1.12,0.00,23.19,28.04,30.42,5.98,29.79,996.11,2046.99,3021.05,3023.03,3267.00,350.86,317.76,29.08,0000 0000 0000 0000 000000
2013-09-07 00:10:40,0.00,1.12,0.00,23.21,28.04,30.41,5.83,29.75,996.11,2046.99,3021.03,3023.03,3267.00,350.09,317.28,29.08,0000 0000 0000 0000 000000
2013-09-07 00:11:40,0.00,1.12,0.00,23.20,28.04,30.42,5.98,29.88,996.11,2046.99,3021.03,3023.05,3267.00,350.60,317.33,29.09,0000 0000 0000 0000 000000
2013-09-07 00:12:41,0.00,1.12,0.00,23.23,28.04,30.39,5.79,29.88,996.11,2046.99,3021.01,3023.05,3267.00,349.82,316.84,29.09,0000 0000 0000 0000 000000
2013-09-07 00:13:41,0.00,1.12,0.00,23.24,28.04,30.40,6.02,29.79,996.11,2046.99,3021.00,3023.04,3267.00,350.15,317.31,29.10,0000 0000 0000 0000 000000
2013-09-07 00:14:41,0.00,1.12,0.00,23.24,28.03,30.39,5.71,29.75,996.11,2046.99,3021.00,3023.02,3267.00,349.46,316.68,29.11,0000 0000 0000 0000 000000
2013-09-07 00:15:42,0.00,1.12,0.00,23.26,28.04,30.38,5.93,29.96,996.11,2046.99,3021.00,3023.02,3267.00,349.89,317.05,29.11,0000 0000 0000 0000 000000
2013-09-07 00:16:42,0.00,1.12,0.00,23.28,28.03,30.39,5.80,29.83,996.11,2046.99,3021.00,3023.02,3266.99,349.71,316.62,29.12,0000 0000 0000 0000 000000
2013-09-07 00:17:42,0.00,1.12,0.00,23.26,28.03,30.39,5.90,29.88,996.11,2046.99,3021.00,3023.01,3266.98,350.54,317.65,29.12,0000 0000 0000 0000 000000
2013-09-07 00:18:42,0.00,1.12,0.00,23.27,28.03,30.38,5.91,29.88,996.11,2046.99,3021.00,3023.01,3266.97,350.07,317.39,29.13,0000 0000 0000 0000 000000
2013-09-07 00:19:43,0.00,1.12,0.00,23.27,28.03,30.37,5.85,29.83,996.11,2046.99,3021.00,3023.00,3266.96,349.38,316.58,29.13,0000 0000 0000 0000 000000
2013-09-07 00:20:43,0.00,1.12,0.00,23.27,28.03,30.38,6.01,29.92,996.11,2046.99,3021.00,3023.00,3266.94,350.10,317.48,29.14,0000 0000 0000 0000 000000
2013-09-07 00:21:43,0.00,1.12,0.00,23.27,28.03,30.38,6.04,29.83,996.11,2046.99,3021.00,3023.00,3266.96,350.28,317.40,29.15,0000 0000 0000 0000 000000
2013-09-07 00:22:44,0.00,1.12,0.00,23.27,28.03,30.37,5.99,29.83,996.11,2046.99,3021.00,3023.00,3266.98,351.04,318.08,29.15,0000 0000 0000 0000 000000
2013-09-07 00:23:44,0.00,1.12,0.00,23.27,28.03,30.36,5.91,30.00,996.11,2046.99,3021.00,3023.00,3266.99,350.54,317.64,29.16,0000 0000 0000 0000 000000
2013-09-07 00:24:44,0.00,1.12,0.00,23.25,28.03,30.37,5.82,29.88,996.11,2046.99,3021.00,3023.00,3266.97,350.21,317.36,29.16,0000 0000 0000 0000 000000
2013-09-07 00:25:44,0.00,1.12,0.00,23.24,28.03,30.37,5.77,29.88,996.11,2046.99,3021.00,3023.00,3266.97,350.35,317.50,29.17,0000 0000 0000 0000 000000
2013-09-07 00:26:44,0.00,1.12,0.00,23.23,28.04,30.36,5.84,29.71,996.11,2046.99,3021.00,3023.00,3266.97,350.58,317.70,29.18,0000 0000 0000 0000 000000
2013-09-07 00:27:44,0.00,1.12,0.00,23.23,28.04,30.38,5.65,29.79,996.11,2046.99,3021.00,3023.00,3266.95,348.95,316.23,29.18,0000 0000 0000 0000 000000
2013-09-07 00:28:45,0.00,1.12,0.00,23.23,28.04,30.36,5.92,29.88,996.11,2046.99,3021.00,3023.00,3266.93,350.30,317.14,29.19,0000 0000 0000 0000 000000
2013-09-07 00:29:45,0.00,1.12,0.00,23.23,28.04,30.38,6.00,29.88,996.11,2046.99,3020.98,3023.00,3266.90,351.13,318.16,29.19,0000 0000 0000 0000 000000
2013-09-07 00:30:45,0.00,1.12,0.00,23.22,28.04,30.38,5.78,29.79,996.11,2046.99,3020.95,3023.00,3266.82,349.10,316.29,29.20,0000 0000 0000 0000 000000
2013-09-07 00:31:45,0.01,1.12,0.00,23.22,28.04,30.39,5.85,29.83,996.11,2046.99,3020.96,3023.00,3266.85,350.05,317.17,29.20,0000 0000 0000 0000 000000
2013-09-07 00:32:46,0.00,1.12,0.00,23.24,28.04,30.40,5.85,29.79,996.11,2046.99,3020.97,3023.00,3266.89,350.23,317.39,29.21,0000 0000 0000 0000 000000
2013-09-07 00:33:46,0.00,1.12,0.00,23.26,28.04,30.43,5.93,29.75,996.11,2046.99,3020.94,3023.00,3266.83,350.09,316.95,29.22,0000 0000 0000 0000 000000
2013-09-07 00:34:46,0.01,1.12,0.00,23.27,28.04,30.42,5.97,29.71,996.10,2046.99,3020.92,3023.00,3266.74,349.35,316.55,29.22,0000 0000 0000 0000 000000
2013-09-07 00:35:46,0.02,1.12,0.00,23.28,28.04,30.41,5.67,29.88,996.10,2046.99,3020.75,3023.00,3266.68,348.32,315.87,29.23,0000 0000 0000 0000 000000
2013-09-07 00:36:46,0.03,1.12,0.00,23.29,28.04,30.41,5.72,29.88,996.09,2046.99,3020.72,3023.00,3266.61,350.02,317.13,29.23,0000 0000 0000 0000 000000
2013-09-07 00:37:47,-0.00,1.12,0.00,23.29,28.04,30.43,5.83,29.83,996.09,2046.99,3020.61,3023.00,3266.49,350.68,317.42,29.24,0000 0000 0000 0000 000000
2013-09-07 00:38:47,0.05,1.12,0.00,23.31,28.04,30.46,5.91,29.92,996.06,2046.99,3020.61,3023.00,3266.41,350.36,317.47,29.25,0000 0000 0000 0000 000000
2013-09-07 00:39:47,0.01,1.12,0.00,23.30,28.04,30.44,5.88,29.79,996.06,2046.99,3020.59,3023.00,3266.39,350.00,317.02,29.25,0000 0000 0000 0000 000000
2013-09-07 00:40:48,0.02,1.12,0.00,23.30,28.04,30.44,5.74,30.00,996.03,2046.99,3020.64,3022.99,3266.32,348.80,316.57,29.26,0000 0000 0000 0000 000000
2013-09-07 00:41:48,-0.01,1.12,0.00,23.30,28.04,30.44,5.85,30.38,996.04,2046.99,3020.44,3022.99,3266.23,348.52,316.10,29.26,0000 0000 0000 0000 000000
2013-09-07 00:42:48,0.05,1.12,0.00,23.30,28.04,30.43,5.96,30.42,996.04,2046.99,3020.20,3022.95,3266.11,350.71,318.04,29.27,0000 0000 0000 0000 000000
2013-09-07 00:43:48,0.05,1.12,0.00,23.30,28.04,30.45,5.93,30.29,996.07,2046.99,3020.12,3022.97,3266.05,350.82,317.55,29.28,0000 0000 0000 0000 000000
2013-09-07 00:44:49,0.01,1.12,0.00,23.30,28.04,30.43,5.99,29.92,996.08,2046.99,3020.09,3022.97,3266.07,349.63,316.76,29.28,0000 0000 0000 0000 000000
2013-09-07 00:45:49,0.00,1.12,0.00,23.30,28.04,30.44,5.96,29.79,996.07,2046.99,3020.07,3022.94,3266.05,349.94,317.20,29.29,0000 0000 0000 0000 000000
2013-09-07 00:46:49,0.01,1.12,0.00,23.31,28.04,30.44,6.03,29.88,996.02,2046.99,3020.03,3022.94,3266.03,349.73,316.83,29.29,0000 0000 0000 0000 000000
2013-09-07 00:47:49,0.00,1.12,0.00,23.30,28.03,30.43,5.97,29.83,996.06,2046.99,3020.02,3022.94,3266.05,349.80,316.91,29.30,0000 0000 0000 0000 000000
2013-09-07 00:48:50,0.00,1.12,0.00,23.29,28.03,30.45,5.75,29.71,996.05,2046.99,3020.02,3022.91,3266.05,349.36,316.52,29.30,0000 0000 0000 0000 000000
2013-09-07 00:49:50,0.01,1.12,0.00,23.30,28.03,30.43,5.77,29.79,996.03,2046.99,3020.00,3022.91,3266.01,349.55,317.13,29.31,0000 0000 0000 0000 000000
2013-09-07 00:50:50,0.00,1.12,0.00,23.29,28.02,30.42,5.98,29.79,996.01,2046.99,3020.00,3022.94,3266.01,349.88,316.63,29.32,0000 0000 0000 0000 000000
2013-09-07 00:51:50,0.00,1.12,0.00,23.28,28.02,30.42,5.81,29.79,995.99,2046.99,3020.00,3022.95,3266.01,349.46,316.93,29.32,0000 0000 0000 0000 000000
2013-09-07 00:52:51,0.00,1.12,0.00,23.28,28.02,30.42,5.88,29.75,995.95,2046.99,3020.01,3022.97,3266.01,350.02,316.99,29.33,0000 0000 0000 0000 000000
2013-09-07 00:53:51,0.00,1.12,0.00,23.30,28.02,30.42,5.92,29.75,995.86,2046.99,3020.00,3022.99,3266.02,350.02,317.31,29.33,0000 0000 0000 0000 000000
2013-09-07 00:54:51,0.00,1.12,0.00,23.30,28.02,30.43,5.82,29.83,995.78,2046.99,3020.02,3022.97,3266.01,349.97,316.99,29.34,0000 0000 0000 0000 000000
2013-09-07 00:55:51,0.00,1.12,0.00,23.27,28.02,30.40,5.97,29.71,995.77,2046.99,3020.01,3022.95,3266.00,350.27,317.54,29.35,0000 0000 0000 0000 000000
2013-09-07 00:56:52,0.00,1.12,0.00,23.26,28.02,30.39,5.94,29.75,995.73,2046.99,3020.01,3022.96,3266.02,350.46,317.61,29.35,0000 0000 0000 0000 000000
2013-09-07 00:57:52,0.00,1.12,0.00,23.25,28.02,30.38,5.77,29.75,995.72,2046.99,3020.00,3022.97,3266.01,349.87,317.17,29.36,0000 0000 0000 0000 000000
2013-09-07 00:58:52,0.00,1.12,0.00,23.23,28.02,30.39,5.68,29.92,995.74,2046.99,3020.01,3022.98,3266.03,349.09,316.48,29.36,0000 0000 0000 0000 000000
2013-09-07 00:59:52,0.00,1.12,0.00,23.23,28.02,30.44,5.93,30.00,995.72,2046.99,3020.02,3022.98,3266.03,349.46,316.51,29.37,0000 0000 0000 0000 000000
2013-09-07 01:00:53,0.00,1.12,0.00,23.23,28.02,30.41,5.92,29.83,995.77,2046.99,3020.01,3022.98,3266.04,350.49,317.52,29.37,0000 0000 0000 0000 000000
2013-09-07 01:01:53,0.00,1.12,0.00,23.23,28.02,30.42,5.86,29.71,995.73,2046.99,3020.00,3022.96,3266.04,350.50,317.07,29.38,0000 0000 0000 0000 000000
2013-09-07 01:02:53,0.00,1.12,0.00,23.26,28.02,30.40,5.82,29.75,995.75,2046.99,3020.01,3022.97,3266.04,349.20,316.31,29.39,0000 0000 0000 0000 000000
2013-09-07 01:03:54,-0.01,1.12,0.00,23.30,28.02,30.40,5.71,29.71,995.71,2046.99,3020.01,3022.98,3266.07,348.55,315.67,29.39,0000 0000 0000 0000 000000
2013-09-07 01:04:54,0.00,1.12,0.00,23.26,28.02,30.37,5.74,29.96,995.70,2046.99,3020.02,3022.98,3266.07,349.96,316.88,29.40,0000 0000 0000 0000 000000
2013-09-07 01:05:54,0.00,1.12,0.00,23.24,28.02,30.36,5.88,29.92,995.73,2046.99,3020.01,3022.98,3266.05,349.80,316.87,29.40,0000 0000 0000 0000 000000
2013-09-07 01:06:54,0.00,1.12,0.00,23.22,28.02,30.38,5.88,29.83,995.70,2047.00,3020.00,3022.96,3266.02,351.10,318.05,29.41,0000 0000 0000 0000 000000
2013-09-07 01:07:55,0.01,1.12,0.00,23.21,28.02,30.39,6.00,29.96,995.69,2047.00,3020.00,3022.98,3266.01,349.96,317.47,29.42,0000 0000 0000 0000 000000
2013-09-07 01:08:55,0.00,1.12,0.00,23.21,28.02,30.36,5.92,29.79,995.66,2047.00,3020.00,3022.97,3266.00,350.42,317.44,29.42,0000 0000 0000 0000 000000
2013-09-07 01:09:55,0.00,1.12,0.00,23.23,28.02,30.36,5.83,29.83,995.66,2047.00,3020.00,3022.97,3266.00,349.43,316.86,29.43,0000 0000 0000 0000 000000
2013-09-07 01:10:56,0.00,1.12,0.00,23.23,28.02,30.38,5.97,29.96,995.64,2047.00,3020.01,3022.96,3266.01,350.12,317.23,29.43,0000 0000 0000 0000 000000
2013-09-07 01:11:56,0.00,1.12,0.00,23.22,28.02,30.40,5.82,29.88,995.65,2047.00,3020.00,3022.95,3266.00,349.24,316.64,29.44,0000 0000 0000 0000 000000
2013-09-07 01:12:56,0.00,1.12,0.00,23.22,28.02,30.41,5.94,29.96,995.64,2047.00,3020.00,3022.95,3266.00,350.22,317.22,29.45,0000 0000 0000 0000 000000
2013-09-07 01:13:56,0.00,1.12,0.00,23.21,28.02,30.40,6.01,29.79,995.64,2047.00,3020.00,3022.95,3266.00,351.32,318.24,29.45,0000 0000 0000 0000 000000
2013-09-07 01:14:56,0.00,1.12,0.00,23.20,28.02,30.42,5.97,29.71,995.67,2047.00,3020.00,3022.97,3266.01,350.33,317.37,29.46,0000 0000 0000 0000 000000
2013-09-07 01:15:56,0.00,1.12,0.00,23.20,28.02,30.44,5.88,29.67,995.67,2047.00,3020.00,3022.97,3266.00,349.97,316.77,29.46,0000 0000 0000 0000 000000
2013-09-07 01:16:57,0.00,1.12,0.00,23.19,28.02,30.42,5.81,29.75,995.68,2047.00,3020.00,3022.98,3266.00,349.79,316.76,29.47,0000 0000 0000 0000 000000
2013-09-07 01:17:57,0.00,1.12,0.00,23.19,28.02,30.44,5.88,29.79,995.69,2047.00,3019.99,3022.90,3266.00,349.20,316.61,29.47,0000 0000 0000 0000 000000
2013-09-07 01:18:57,0.02,1.12,0.00,23.19,28.02,30.43,5.94,29.75,995.64,2047.00,3019.97,3022.79,3266.00,350.31,317.25,29.48,0000 0000 0000 0000 000000
2013-09-07 01:19:57,0.03,1.12,0.00,23.17,28.02,30.44,5.81,29.88,995.62,2047.00,3019.96,3022.72,3266.00,349.01,316.56,29.49,0000 0000 0000 0000 000000
2013-09-07 01:20:57,0.00,1.12,0.00,23.18,28.02,30.43,5.91,29.75,995.63,2047.00,3019.94,3022.52,3266.00,349.74,316.62,29.49,0000 0000 0000 0000 000000
2013-09-07 01:21:58,0.06,1.12,0.00,23.19,28.02,30.45,5.92,29.88,995.64,2047.00,3019.74,3022.37,3266.00,351.18,318.36,29.50,0000 0000 0000 0000 000000
2013-09-07 01:22:58,0.07,1.12,0.00,23.19,28.02,30.45,5.95,29.71,995.65,2047.00,3019.61,3022.21,3266.00,350.68,317.62,29.50,0000 0000 0000 0000 000000
2013-09-07 01:23:58,0.03,1.12,0.00,23.19,28.02,30.45,5.86,29.79,995.67,2047.00,3019.66,3022.22,3266.00,349.97,317.18,29.51,0000 0000 0000 0000 000000
2013-09-07 01:24:58,-0.01,1.12,0.00,23.20,28.02,30.46,5.84,29.79,995.66,2047.00,3019.59,3022.27,3266.00,350.07,316.80,29.52,0000 0000 0000 0000 000000
2013-09-07 01:25:58,0.02,1.12,0.00,23.20,28.02,30.45,5.85,29.79,995.66,2047.00,3019.65,3022.37,3266.00,349.76,316.99,29.52,0000 0000 0000 0000 000000
2013-09-07 01:26:58,-0.07,1.12,0.00,23.19,28.02,30.45,5.86,29.75,995.65,2047.00,3019.75,3022.45,3266.00,350.61,317.41,29.53,0000 0000 0000 0000 000000
2013-09-07 01:27:58,-0.03,1.12,0.00,23.19,28.02,30.43,5.79,29.83,995.65,2047.00,3019.78,3022.43,3266.00,349.40,316.54,29.53,0000 0000 0000 0000 000000
2013-09-07 01:28:59,0.02,1.12,0.00,23.20,28.02,30.43,5.94,29.75,995.64,2047.00,3019.65,3022.35,3266.00,350.18,317.24,29.54,0000 0000 0000 0000 000000
2013-09-07 01:29:59,0.02,1.12,0.00,23.21,28.02,30.43,5.81,29.75,995.63,2047.00,3019.63,3022.28,3266.00,349.17,316.51,29.54,0000 0000 0000 0000 000000
2013-09-07 01:30:59,0.01,1.12,0.00,23.21,28.02,30.41,6.06,29.79,995.62,2047.01,3019.50,3022.19,3265.98,350.53,317.53,29.55,0000 0000 0000 0000 000000
2013-09-07 01:31:59,0.06,1.12,0.00,23.20,28.02,30.43,5.90,29.75,995.65,2047.00,3019.28,3022.14,3265.96,350.72,317.72,29.56,0000 0000 0000 0000 000000
2013-09-07 01:33:00,0.03,1.12,0.00,23.18,28.02,30.44,6.03,29.75,995.64,2047.00,3019.19,3022.13,3265.97,350.23,317.30,29.56,0000 0000 0000 0000 000000
2013-09-07 01:34:00,0.00,1.12,0.00,23.19,28.02,30.43,5.81,29.79,995.64,2047.00,3019.13,3022.12,3265.98,349.43,316.57,29.57,0000 0000 0000 0000 000000
2013-09-07 01:35:00,0.02,1.12,0.00,23.17,28.02,30.41,5.89,30.04,995.65,2047.00,3019.12,3022.11,3265.97,349.27,316.96,29.57,0000 0000 0000 0000 000000
2013-09-07 01:36:00,0.00,1.12,0.00,23.17,28.02,30.44,5.80,29.83,995.65,2047.00,3019.31,3022.14,3265.96,349.70,317.09,29.58,0000 0000 0000 0000 000000
2013-09-07 01:37:00,-0.04,1.12,0.00,23.16,28.02,30.44,5.97,29.79,995.63,2047.00,3019.25,3022.12,3265.97,351.59,318.54,29.59,0000 0000 0000 0000 000000
2013-09-07 01:38:01,0.02,1.12,0.00,23.17,28.02,30.46,5.78,29.79,995.66,2047.00,3019.30,3022.16,3265.98,349.46,316.62,29.59,0000 0000 0000 0000 000000
2013-09-07 01:39:01,-0.02,1.12,0.00,23.18,28.02,30.45,5.98,29.83,995.68,2047.01,3019.48,3022.29,3265.99,350.42,317.48,29.60,0000 0000 0000 0000 000000
2013-09-07 01:40:01,-0.04,1.12,0.00,23.19,28.02,30.47,5.84,29.75,995.65,2047.00,3019.41,3022.32,3265.98,350.17,316.80,29.60,0000 0000 0000 0000 000000
2013-09-07 01:41:01,0.00,1.12,0.00,23.18,28.02,30.47,5.88,30.08,995.62,2047.00,3019.17,3022.16,3265.96,350.16,317.23,29.61,0000 0000 0000 0000 000000
2013-09-07 01:42:01,0.07,1.12,0.00,23.18,28.02,30.46,5.84,30.25,995.64,2047.00,3019.06,3022.10,3265.97,349.48,316.62,29.61,0000 0000 0000 0000 000000
2013-09-07 01:43:02,0.03,1.12,0.00,23.18,28.02,30.43,5.79,30.29,995.65,2047.00,3019.02,3022.05,3265.93,349.27,316.44,29.62,0000 0000 0000 0000 000000
2013-09-07 01:44:02,0.02,1.12,0.00,23.17,28.02,30.46,5.87,30.25,995.65,2047.01,3019.00,3022.03,3265.91,350.65,317.52,29.63,0000 0000 0000 0000 000000
2013-09-07 01:45:02,0.02,1.12,0.00,23.16,28.02,30.46,5.90,29.88,995.65,2047.00,3019.00,3022.02,3265.90,350.07,317.20,29.63,0000 0000 0000 0000 000000
2013-09-07 01:46:02,0.00,1.12,0.00,23.17,28.02,30.50,5.82,29.79,995.63,2047.00,3019.01,3022.02,3265.84,349.35,316.98,29.64,0000 0000 0000 0000 000000
2013-09-07 01:47:03,0.00,1.12,0.00,23.17,28.03,30.50,5.69,29.79,995.63,2047.00,3019.00,3022.01,3265.88,348.76,315.98,29.64,0000 0000 0000 0000 000000
2013-09-07 01:48:03,0.00,1.12,0.00,23.17,28.03,30.50,5.91,30.00,995.63,2047.00,3019.00,3022.01,3265.90,350.57,317.62,29.65,0000 0000 0000 0000 000000
2013-09-07 01:49:03,-0.01,1.12,0.00,23.16,28.02,30.51,5.97,29.92,995.64,2047.00,3019.00,3022.01,3265.83,350.85,317.75,29.66,0000 0000 0000 0000 000000
2013-09-07 01:50:03,0.01,1.12,0.00,23.17,28.03,30.50,5.78,29.75,995.62,2047.00,3019.00,3022.02,3265.83,349.88,316.99,29.66,0000 0000 0000 0000 000000
2013-09-07 01:51:03,0.00,1.12,0.00,23.20,28.03,30.50,5.85,29.83,995.62,2047.01,3019.00,3022.04,3265.84,349.12,316.27,29.67,0000 0000 0000 0000 000000
2013-09-07 01:52:04,0.00,1.12,0.00,23.22,28.02,30.50,5.78,29.83,995.62,2047.00,3019.00,3022.05,3265.79,349.07,316.19,29.67,0000 0000 0000 0000 000000
2013-09-07 01:53:04,0.00,1.12,0.00,23.23,28.02,30.50,5.77,29.83,995.63,2047.02,3019.00,3022.03,3265.81,349.88,316.92,29.68,0000 0000 0000 0000 000000
2013-09-07 01:54:04,0.00,1.12,0.00,23.24,28.02,30.49,5.77,29.67,995.62,2047.01,3019.00,3022.05,3265.83,348.89,316.01,29.68,0000 0000 0000 0000 000000
2013-09-07 01:55:04,0.00,1.12,0.00,23.25,28.02,30.49,5.77,29.83,995.62,2047.01,3019.00,3022.03,3265.85,349.39,316.24,29.69,0000 0000 0000 0000 000000
2013-09-07 01:56:04,0.00,1.12,0.00,23.26,28.02,30.51,5.97,29.88,995.62,2047.01,3019.00,3022.06,3265.74,350.78,317.70,29.70,0000 0000 0000 0000 000000
2013-09-07 01:57:05,0.00,1.12,0.00,23.25,28.02,30.51,5.95,29.67,995.62,2047.00,3019.00,3022.07,3265.65,351.15,317.69,29.70,0000 0000 0000 0000 000000
2013-09-07 01:58:05,0.00,1.12,0.00,23.25,28.02,30.48,5.93,29.88,995.62,2047.00,3019.00,3022.03,3265.52,350.06,317.06,29.71,0000 0000 0000 0000 000000
2013-09-07 01:59:05,0.02,1.12,0.00,23.27,28.02,30.48,5.84,29.83,995.62,2047.00,3018.99,3022.02,3265.38,349.75,316.83,29.71,0000 0000 0000 0000 000000
2013-09-07 02:00:06,0.02,1.12,0.00,23.27,28.02,30.47,5.82,29.71,995.62,2047.00,3018.98,3022.03,3265.34,349.66,316.92,29.72,0000 0000 0000 0000 000000
2013-09-07 02:01:06,-0.00,1.12,0.00,23.27,28.02,30.48,5.92,29.75,995.62,2047.00,3018.98,3022.02,3265.40,349.75,316.76,29.73,0000 0000 0000 0000 000000
2013-09-07 02:02:06,-0.01,1.12,0.00,23.27,28.02,30.48,5.95,29.83,995.62,2047.00,3018.98,3022.02,3265.32,349.72,316.73,29.73,0000 0000 0000 0000 000000
2013-09-07 02:03:06,0.01,1.12,0.00,23.27,28.02,30.45,5.99,29.71,995.62,2047.00,3018.98,3022.01,3265.31,350.22,317.19,29.74,0000 0000 0000 0000 000000
2013-09-07 02:04:06,0.00,1.12,0.00,23.27,28.02,30.44,5.94,29.83,995.62,2047.00,3018.98,3022.00,3265.26,349.99,316.78,29.74,0000 0000 0000 0000 000000
2013-09-07 02:05:07,0.01,1.13,0.00,23.25,28.02,30.45,5.84,29.75,995.62,2047.00,3018.99,3022.00,3265.30,350.00,317.00,29.75,0000 0000 0000 0000 000000
2013-09-07 02:06:07,-0.00,1.12,0.00,23.27,28.02,30.45,5.95,29.92,995.62,2047.00,3018.99,3022.02,3265.38,349.66,316.68,29.76,0000 0000 0000 0000 000000
2013-09-07 02:07:07,-0.02,1.12,0.00,23.25,28.02,30.43,5.89,29.83,995.62,2047.00,3018.98,3022.00,3265.44,349.77,316.80,29.76,0000 0000 0000 0000 000000
2013-09-07 02:08:07,0.00,1.12,0.00,23.23,28.02,30.43,5.83,29.92,995.62,2047.01,3018.98,3022.00,3265.38,349.27,316.59,29.77,0000 0000 0000 0000 000000
2013-09-07 02:09:08,0.01,1.12,0.00,23.19,28.02,30.44,5.94,29.71,995.60,2047.00,3018.99,3022.03,3265.37,350.75,317.85,29.77,0000 0000 0000 0000 000000
2013-09-07 02:10:08,-0.01,1.12,0.00,23.19,28.02,30.45,5.90,29.83,995.62,2047.00,3018.99,3022.01,3265.36,349.52,316.32,29.78,0000 0000 0000 0000 000000
2013-09-07 02:11:08,0.01,1.12,0.00,23.20,28.02,30.46,5.80,29.88,995.60,2047.00,3018.99,3022.00,3265.38,349.38,316.50,29.78,0000 0000 0000 0000 000000
2013-09-07 02:12:08,0.00,1.12,0.00,23.21,28.02,30.43,5.82,29.83,995.60,2047.00,3018.98,3022.01,3265.39,349.75,316.82,29.79,0000 0000 0000 0000 000000
2013-09-07 02:13:08,0.01,1.12,0.00,23.24,28.02,30.42,5.87,29.88,995.59,2047.01,3018.99,3022.00,3265.22,349.69,316.73,29.80,0000 0000 0000 0000 000000
2013-09-07 02:14:09,0.02,1.13,0.00,23.28,28.02,30.40,5.72,29.88,995.55,2047.00,3018.97,3022.00,3265.12,349.83,316.81,29.80,0000 0000 0000 0000 000000
2013-09-07 02:15:09,0.00,1.13,0.00,23.28,28.02,30.42,5.83,29.71,995.58,2047.02,3018.96,3022.01,3265.07,350.55,317.46,29.81,0000 0000 0000 0000 000000
2013-09-07 02:16:09,0.01,1.13,0.00,23.28,28.02,30.44,5.81,29.88,995.58,2047.01,3018.94,3022.00,3265.06,349.09,316.14,29.81,0000 0000 0000 0000 000000
2013-09-07 02:17:10,0.00,1.13,0.00,23.25,28.02,30.43,5.98,29.75,995.53,2047.00,3018.93,3022.00,3265.05,349.78,316.78,29.82,0000 0000 0000 0000 000000
2013-09-07 02:18:10,0.00,1.13,0.00,23.22,28.02,30.39,5.89,29.88,995.47,2047.01,3018.94,3022.00,3265.12,349.88,317.04,29.83,0000 0000 0000 0000 000000
2013-09-07 02:19:10,-0.00,1.13,0.00,23.22,28.02,30.40,5.98,29.75,995.46,2047.01,3018.92,3022.01,3265.14,351.11,318.20,29.83,0000 0000 0000 0000 000000
2013-09-07 02:20:10,-0.00,1.13,0.00,23.22,28.02,30.40,5.84,29.92,995.44,2047.01,3018.74,3022.00,3265.10,349.27,316.37,29.84,0000 0000 0000 0000 000000
2013-09-07 02:21:11,0.04,1.13,0.00,23.22,28.02,30.39,5.91,29.88,995.42,2047.01,3018.73,3022.00,3265.06,350.74,317.65,29.84,0000 0000 0000 0000 000000
2013-09-07 02:22:11,0.01,1.13,0.00,23.22,28.02,30.42,5.77,29.79,995.42,2047.02,3018.67,3022.00,3265.05,349.34,316.38,29.85,0000 0000 0000 0000 000000
2013-09-07 02:23:11,0.00,1.13,0.00,23.23,28.02,30.43,5.81,29.79,995.32,2047.00,3018.70,3022.00,3265.04,350.03,316.97,29.85,0000 0000 0000 0000 000000
2013-09-07 02:24:11,-0.00,1.13,0.00,23.22,28.02,30.41,5.95,29.75,995.32,2047.00,3018.77,3022.00,3265.03,350.12,316.87,29.86,0000 0000 0000 0000 000000
2013-09-07 02:25:12,-0.01,1.13,0.00,23.21,28.02,30.42,5.89,29.88,995.36,2047.00,3018.56,3022.00,3265.03,349.44,316.70,29.87,0000 0000 0000 0000 000000
2013-09-07 02:26:12,0.03,1.13,0.00,23.20,28.02,30.39,5.76,29.79,995.41,2047.00,3018.32,3022.00,3265.02,349.29,316.34,29.87,0000 0000 0000 0000 000000
2013-09-07 02:27:12,0.04,1.13,0.00,23.19,28.02,30.40,5.95,29.75,995.30,2047.02,3018.40,3022.00,3265.00,350.25,317.09,29.88,0000 0000 0000 0000 000000
2013-09-07 02:28:12,0.01,1.13,0.00,23.19,28.02,30.40,6.05,29.88,995.28,2047.00,3018.40,3022.00,3265.00,350.62,317.53,29.88,0000 0000 0000 0000 000000
2013-09-07 02:29:12,-0.01,1.13,0.00,23.17,28.02,30.41,6.00,29.83,995.24,2047.00,3018.19,3022.00,3265.00,350.54,317.13,29.89,0000 0000 0000 0000 000000
2013-09-07 02:30:12,0.02,1.13,0.00,23.16,28.02,30.44,5.88,29.71,995.24,2047.00,3018.13,3022.00,3265.01,350.56,317.48,29.90,0000 0000 0000 0000 000000
2013-09-07 02:31:13,0.00,1.13,0.00,23.17,28.02,30.45,6.00,29.79,995.22,2047.00,3018.06,3022.00,3265.00,351.09,318.07,29.90,0000 0000 0000 0000 000000
2013-09-07 02:32:13,0.00,1.13,0.00,23.15,28.02,30.46,5.81,29.88,995.20,2047.00,3018.03,3022.00,3265.00,349.35,316.70,29.91,0000 0000 0000 0000 000000
2013-09-07 02:33:13,0.00,1.13,0.00,23.14,28.02,30.46,5.75,29.88,995.17,2047.00,3018.04,3021.99,3265.00,349.92,317.09,29.91,0000 0000 0000 0000 000000
2013-09-07 02:34:13,0.00,1.13,0.00,23.16,28.02,30.45,6.07,29.83,995.17,2047.00,3018.02,3021.99,3265.00,351.07,317.93,29.92,0000 0000 0000 0000 000000
2013-09-07 02:35:14,0.00,1.13,0.00,23.16,28.02,30.44,6.03,29.92,995.18,2047.00,3018.00,3021.99,3265.00,350.14,317.10,29.92,0000 0000 0000 0000 000000
2013-09-07 02:36:14,0.00,1.13,0.00,23.17,28.02,30.42,6.01,30.00,995.16,2047.00,3018.00,3021.99,3265.00,350.12,317.06,29.93,0000 0000 0000 0000 000000
2013-09-07 02:37:14,0.00,1.13,0.00,23.18,28.02,30.45,5.94,29.75,995.17,2047.00,3018.00,3021.99,3265.00,350.60,317.48,29.94,0000 0000 0000 0000 000000